GFSNIL_con_3kmhel_000.txt.gz
Helicity
161 144 137 127 110 101 92 78 88 81 95 105 103 98 94 96 95 96 110 113 124 135
198 191 166 162 146 121 117 106 93 85 101 105 103 101 101 109 110 122 132 133 148 163
217 206 195 180 160 146 132 116 85 87 112 108 104 106 114 124 126 132 140 140 155 151
236 224 214 196 172 153 136 115 89 102 107 109 111 114 127 132 127 145 135 146 142 154
248 240 233 208 181 163 142 110 102 110 110 113 117 125 136 144 145 142 171 156 151 156
271 263 244 214 182 158 130 111 103 112 115 121 126 134 147 150 148 185 160 152 155 148
285 261 229 191 169 143 118 104 103 109 117 128 132 139 141 135 174 173 171 142 133 132
270 240 200 178 148 114 99 97 104 116 125 133 130 134 128 150 175 178 154 139 123 133
243 210 177 138 102 86 94 105 107 114 123 128 130 83 79 111 173 180 148 128 124 131
214 185 130 90 96 108 104 97 104 111 126 134 140 77 84 112 166 169 141 125 135 145
175 156 86 111 109 100 97 109 115 122 123 141 142 77 89 92 173 163 138 133 140 147
179 98 114 120 107 106 112 112 119 121 130 144 136 86 91 111 154 163 150 154 142 131
95 97 113 108 119 108 108 104 122 124 132 108 121 96 73 96 166 167 173 155 151 102
89 99 102 121 111 106 98 120 128 129 124 124 120 137 112 127 155 175 170 169 157 136

GFSNIL_con_3kmhel_003.txt.gz
Helicity
192 174 157 139 133 128 104 79 67 67 67 61 74 86 88 89 96 98 107 110 129 145
195 192 180 180 172 142 120 96 94 88 72 63 76 89 91 100 101 108 115 132 143 171
210 213 209 204 189 163 130 108 102 84 73 75 92 97 102 110 108 117 128 135 159 157
238 246 237 214 185 154 130 114 98 90 85 91 101 102 103 106 108 136 146 147 164 164
268 268 247 219 181 149 127 105 106 105 100 105 101 101 109 126 137 149 157 157 159 156
293 270 232 193 159 141 125 121 115 108 101 101 105 112 124 140 141 139 155 158 162 137
280 236 196 169 155 136 123 115 110 108 108 102 101 111 111 120 132 149 158 153 143 130
245 204 187 172 150 122 118 121 112 106 97 95 105 102 99 117 144 156 155 148 140 139
210 205 186 160 123 124 131 115 105 95 93 103 104 73 63 98 143 157 166 157 145 153
212 187 158 134 130 133 118 108 95 94 103 116 124 78 83 82 136 174 172 177 183 178
172 162 151 139 133 121 110 105 101 106 120 136 129 78 78 91 155 190 190 181 182 156
155 152 141 135 128 115 111 111 114 123 129 132 123 82 112 130 173 181 183 178 150 104
140 129 125 119 113 109 101 106 123 120 118 93 122 110 115 156 185 190 191 169 144 81
121 105 95 101 98 100 105 118 123 129 122 108 104 115 101 125 156 162 154 144 143 142

GFSNIL_con_3kmhel_006.txt.gz
Helicity
190 195 191 173 157 127 98 81 77 72 73 87 95 100 103 96 92 87 90 87 100 121
224 238 226 213 186 152 129 118 119 110 108 109 110 107 105 99 93 93 92 91 99 128
244 249 237 218 196 173 158 147 139 124 119 110 110 118 113 109 102 99 106 103 125 141
257 251 237 221 203 184 164 155 134 122 120 117 131 128 124 115 98 105 112 123 140 161
255 242 239 230 211 178 172 150 134 122 120 133 138 127 121 111 103 114 136 154 167 155
244 239 238 231 205 192 175 142 126 128 144 146 138 121 112 105 115 132 157 158 155 153
228 233 233 226 211 191 156 131 139 154 150 140 120 103 92 112 132 153 152 156 169 167
233 237 241 232 201 170 140 143 153 161 148 125 102 88 110 127 140 149 171 181 182 185
240 243 230 206 179 155 165 168 169 155 121 103 97 106 131 145 162 174 181 189 216 236
228 218 201 182 174 172 168 166 152 123 104 106 114 117 144 163 171 175 176 198 215 202
201 200 188 174 162 158 158 159 132 112 102 103 108 134 159 158 167 166 177 194 181 173
195 181 158 156 165 160 153 132 112 99 93 113 115 119 135 147 158 150 150 148 146 136
156 149 155 166 174 137 118 95 95 101 112 100 121 95 109 130 142 147 156 153 160 82
151 158 156 155 132 110 101 96 101 100 111 105 98 106 75 100 151 161 157 169 156 131

GFSNIL_con_3kmhel_009.txt.gz
Helicity
157 160 155 147 150 157 156 148 133 115 103 99 100 104 115 117 120 114 117 110 104 103
187 198 193 197 199 195 192 166 144 134 125 116 122 132 132 122 125 121 116 106 102 118
216 221 222 219 224 223 204 181 168 155 148 150 144 141 141 131 128 124 123 118 124 131
248 240 242 250 241 228 211 210 189 168 167 154 147 151 142 137 123 132 120 127 131 137
248 248 255 251 242 228 228 215 189 187 178 161 155 141 142 136 126 117 123 125 137 142
251 245 245 246 237 236 237 223 212 201 177 163 150 138 133 120 110 114 120 126 145 148
236 234 239 240 250 253 235 227 217 191 173 158 134 123 108 104 104 111 126 145 150 155
233 238 248 258 265 244 235 222 202 186 162 146 127 105 103 100 107 124 141 139 155 179
235 246 258 261 243 243 242 218 183 172 163 143 110 84 106 133 144 144 133 147 161 188
240 246 243 240 251 251 213 186 192 176 137 119 102 87 113 131 149 131 140 165 184 184
229 229 234 247 237 202 192 193 176 143 116 104 96 111 115 107 143 154 168 177 163 157
208 228 230 217 212 204 185 164 136 117 102 99 103 98 97 128 158 177 159 166 157 124
224 209 203 210 216 170 145 132 121 103 102 99 109 90 106 135 156 162 155 148 132 83
206 208 210 192 164 150 136 118 111 113 101 103 106 116 108 119 149 154 157 148 140 126

GFSNIL_con_3kmhel_012.txt.gz
Helicity
233 202 180 148 150 153 151 142 136 158 163 152 129 109 98 85 88 102 117 117 121 124
208 206 195 190 187 179 170 167 186 193 188 172 146 129 118 105 106 112 118 117 117 125
234 239 231 225 212 205 204 204 212 209 200 178 159 150 135 118 115 124 125 120 117 131
279 273 262 247 227 224 223 218 222 215 200 196 179 155 138 131 119 133 121 116 132 140
292 282 275 258 245 230 231 236 230 223 219 195 165 151 147 136 127 119 120 125 140 143
278 276 272 262 245 244 246 249 251 237 222 186 162 150 132 126 117 115 120 124 134 133
261 262 259 246 247 253 254 260 247 234 195 168 147 133 126 119 112 124 133 127 134 150
255 260 256 261 264 263 268 254 241 207 177 165 145 125 104 104 125 134 122 126 132 118
251 255 270 275 268 265 258 247 208 188 179 161 125 85 97 112 133 136 132 129 115 133
244 271 279 266 257 249 242 202 189 178 152 132 109 89 100 99 140 141 125 115 137 163
253 267 255 250 242 227 194 183 166 148 129 115 104 102 90 94 145 131 120 141 158 168
232 236 231 234 213 184 178 169 140 118 114 109 95 85 104 118 126 127 134 155 128 121
224 223 215 193 180 162 143 134 124 110 105 85 97 93 93 98 118 135 153 119 131 99
225 212 179 168 143 142 141 129 116 100 96 106 109 100 81 92 136 143 141 143 136 100

GFSNIL_con_3kmhel_015.txt.gz
Helicity
220 271 263 204 177 174 169 152 141 141 128 117 110 108 106 94 84 78 75 74 82 97
251 283 260 214 205 201 186 171 156 142 140 135 135 129 117 101 96 96 100 100 103 102
256 285 259 233 226 210 202 182 163 162 159 154 144 138 126 122 116 109 111 111 103 103
307 286 256 246 231 222 203 183 187 179 173 158 154 146 148 135 116 111 111 115 123 116
317 294 286 261 240 216 219 211 198 192 179 169 164 157 145 121 111 120 124 121 128 130
302 289 275 259 243 234 229 223 212 196 191 174 155 146 125 108 116 117 114 122 126 128
259 256 255 256 253 239 231 225 216 206 177 154 146 126 109 107 106 114 114 125 126 127
248 254 261 260 252 253 251 235 208 177 156 151 130 115 109 107 114 116 124 121 117 118
248 248 249 252 256 260 240 210 181 165 154 144 125 104 105 111 125 129 126 113 109 126
234 244 245 241 244 231 205 171 160 151 145 131 109 97 106 109 130 129 111 111 120 128
229 233 224 228 214 191 164 155 145 144 123 116 109 102 107 106 119 116 113 111 114 113
200 209 198 194 177 159 147 143 140 118 119 116 99 102 100 105 116 114 120 112 87 97
181 172 171 160 154 134 130 134 121 121 102 78 96 98 94 103 112 122 111 81 100 92
174 170 150 136 128 132 134 127 116 94 95 104 96 91 91 109 131 107 105 116 114 107

GFSNIL_con_3kmhel_018.txt.gz
Helicity
271 269 201 209 182 177 168 156 140 136 117 104 89 77 67 69 71 75 81 87 87 89
245 255 209 206 211 201 183 169 153 138 124 110 95 85 79 78 80 84 105 111 104 106
281 245 268 236 228 202 191 176 164 146 130 116 106 95 92 84 97 104 130 129 124 120
293 285 251 246 231 214 197 183 171 154 141 127 115 110 96 101 112 128 141 132 128 123
296 280 277 258 232 201 202 193 180 165 152 141 129 118 114 112 131 141 133 133 130 123
287 289 276 250 229 214 204 198 186 168 160 150 137 126 122 129 135 128 125 127 133 125
292 284 258 240 227 224 210 194 176 172 168 153 141 129 133 130 121 121 114 116 113 123
308 298 253 240 235 228 212 191 172 170 160 150 135 149 134 124 121 109 113 109 117 130
262 253 242 235 224 211 199 173 176 162 156 142 140 143 128 124 113 112 105 109 130 139
268 257 227 208 197 188 176 178 156 153 139 137 135 135 128 111 96 110 116 124 138 152
230 219 195 183 183 184 174 152 145 136 134 124 134 122 106 90 88 115 128 129 138 166
182 179 175 178 190 165 137 134 130 124 125 136 113 106 92 93 107 122 122 137 141 155
176 177 184 162 144 140 133 129 116 126 107 111 93 97 92 99 106 136 163 136 114 87
174 162 158 149 136 128 123 120 121 107 97 86 93 96 97 104 130 147 136 127 100 103

GFSNIL_con_3kmhel_021.txt.gz
Helicity
301 308 358 385 360 319 272 193 158 155 145 123 104 88 70 62 57 65 68 85 99 107
294 288 346 327 303 259 219 192 179 163 142 125 110 90 79 72 66 74 94 101 105 110
280 328 326 296 282 285 212 186 188 165 146 129 114 103 90 89 101 98 116 122 121 129
333 373 363 319 316 275 215 203 183 166 149 131 117 105 93 108 111 109 115 126 133 139
355 403 378 324 301 244 247 213 191 162 147 136 129 115 116 106 115 117 125 140 149 146
368 412 351 338 281 263 240 217 192 176 163 154 143 121 128 129 126 130 135 141 149 141
409 398 362 318 299 264 217 188 175 178 179 171 147 147 140 128 127 126 131 132 129 129
381 373 311 328 285 233 199 179 173 176 179 166 162 171 151 136 127 127 122 121 127 138
356 295 312 263 231 217 168 187 181 190 168 156 158 168 137 130 130 111 114 134 147 159
283 312 283 231 187 189 195 179 185 153 153 141 131 160 131 115 98 100 118 136 151 153
267 235 234 235 209 204 184 175 146 151 115 128 137 144 109 92 79 107 123 134 129 142
214 223 208 215 213 205 166 143 122 111 135 122 113 137 100 97 110 120 113 131 139 153
214 210 213 200 178 147 133 113 133 125 108 115 95 114 114 115 112 108 152 152 148 151
204 191 174 149 122 118 136 126 113 96 83 91 102 117 120 109 103 137 154 153 160 143

GFSNIL_con_3kmhel_024.txt.gz
Helicity
389 428 396 393 426 428 450 422 357 307 267 220 168 139 117 99 86 84 72 75 79 91
364 347 363 405 417 463 436 400 324 294 245 191 167 130 109 94 88 83 73 73 88 96
374 362 334 349 421 438 359 359 331 285 238 198 169 140 122 113 103 105 88 106 114 121
303 305 294 360 400 434 403 292 311 267 208 180 149 129 115 114 112 97 91 118 123 129
310 305 333 439 417 441 318 324 310 258 215 176 157 146 136 119 125 106 122 121 144 150
347 388 448 472 414 407 356 332 285 238 201 183 155 138 135 126 127 132 137 132 148 150
386 421 473 442 469 410 357 310 271 248 208 164 133 125 117 125 132 144 141 146 149 149
386 449 437 501 456 360 337 301 265 226 177 133 97 129 145 159 158 146 150 143 140 151
493 526 546 367 343 368 308 247 197 166 134 102 150 149 157 144 143 146 138 140 139 142
511 528 438 363 261 232 204 198 206 146 114 130 130 147 133 151 137 126 118 123 124 134
610 317 136 140 195 176 194 179 185 145 122 120 121 136 154 131 125 119 111 105 117 146
194 92 125 178 223 219 172 143 152 104 131 139 165 130 133 136 128 117 110 130 148 152
50 122 115 139 130 123 123 92 133 152 140 132 122 121 127 116 111 110 129 133 130 117
99 116 140 149 133 129 145 154 134 116 99 106 105 104 86 94 112 108 113 129 135 142

GFSNIL_con_3kmhel_027.txt.gz
Helicity
570 528 466 475 501 518 539 571 431 390 366 387 343 297 222 172 135 115 97 89 87 94
524 443 430 372 367 446 469 501 464 426 430 412 319 274 201 154 126 104 88 82 87 103
420 364 331 329 371 420 458 470 500 437 457 284 319 228 179 149 116 109 94 81 94 107
379 360 286 261 348 377 442 523 531 534 231 287 285 219 179 135 104 96 87 95 97 102
353 333 253 282 318 370 473 449 367 261 307 288 247 198 142 121 108 87 78 87 79 88
343 277 273 324 392 395 433 392 449 314 287 285 223 175 149 119 103 89 77 80 100 116
246 273 367 411 426 431 416 359 349 294 296 244 205 171 154 141 123 113 139 151 151 139
327 375 428 489 429 449 461 314 411 315 278 210 178 136 129 125 134 149 162 168 159 147
409 447 510 470 470 471 523 365 294 214 182 160 144 169 143 141 143 158 154 157 148 126
482 515 515 484 543 477 468 366 184 179 123 178 172 165 149 166 162 160 156 134 125 133
513 528 382 395 243 301 142 95 70 128 152 140 129 163 169 178 165 147 137 130 146 157
285 223 259 194 204 68 48 56 126 124 133 145 137 138 147 140 134 138 128 134 149 143
118 114 64 46 26 75 96 107 144 135 119 114 96 91 110 111 114 130 132 117 120 122
57 75 23 40 63 86 113 104 102 112 100 107 98 95 102 94 115 96 105 116 127 139

GFSNIL_con_3kmhel_030.txt.gz
Helicity
380 486 496 534 531 543 555 545 516 539 564 553 409 390 363 288 330 272 188 150 125 107
403 447 510 554 522 557 546 547 519 516 495 558 377 407 336 363 265 287 171 142 122 113
409 445 504 519 448 427 467 463 470 480 538 516 438 344 434 324 289 236 184 137 118 112
395 401 392 375 399 402 398 420 414 539 550 457 380 403 440 289 263 224 174 137 104 90
346 342 295 299 318 307 396 435 541 615 600 575 506 314 364 230 192 190 129 114 106 83
293 336 283 259 251 333 420 465 501 547 523 351 327 246 277 242 175 150 123 103 90 79
298 295 308 311 282 360 373 456 459 430 471 398 394 367 283 180 148 150 143 136 102 123
349 363 389 390 363 372 448 469 413 533 480 398 295 244 189 156 133 152 157 141 160 157
429 435 364 435 393 462 462 466 551 462 370 246 306 177 122 123 121 131 146 168 166 176
323 396 404 418 404 376 455 455 455 482 339 301 235 150 125 119 132 145 170 178 180 175
393 416 376 373 271 277 264 282 315 239 124 97 66 95 113 128 141 168 167 159 149 145
165 180 179 136 223 178 168 96 83 60 62 70 107 105 114 127 149 154 136 126 139 138
106 93 137 136 146 103 75 53 57 53 87 96 93 83 93 114 125 135 131 121 131 158
59 62 65 87 35 13 44 59 77 91 99 100 91 89 93 81 93 87 119 142 151 160

GFSNIL_con_3kmhel_033.txt.gz
Helicity
139 239 277 344 391 428 438 473 531 511 501 541 529 500 435 484 340 374 347 321 293 244
184 212 224 277 356 375 433 517 525 532 561 574 529 498 511 516 317 413 388 296 277 216
133 190 258 324 365 410 457 447 484 551 537 534 485 495 519 471 515 277 417 394 248 217
134 206 272 323 369 422 407 425 386 427 455 450 481 495 522 529 419 453 404 326 198 176
134 184 225 277 318 338 372 338 328 368 398 499 549 561 600 646 515 434 407 337 147 140
145 180 204 239 262 309 324 370 388 448 563 635 627 673 608 467 453 238 248 206 140 125
153 176 232 249 282 294 327 381 406 445 496 547 571 508 411 430 281 237 272 296 159 120
170 198 253 295 336 332 367 395 384 486 517 533 483 386 373 408 320 224 232 195 138 132
286 326 370 404 438 428 409 399 446 470 486 467 446 475 388 357 305 247 210 124 137 142
340 368 393 371 389 330 373 408 464 458 458 438 489 296 289 275 111 75 88 119 136 152
221 218 204 208 211 196 226 217 237 246 255 229 154 143 108 70 66 94 107 116 131 142
-19 41 91 138 215 168 190 173 197 116 143 94 71 28 38 74 103 113 117 121 139 131
164 156 154 161 166 143 142 150 48 42 67 30 24 61 82 98 110 126 126 120 124 137
71 57 32 48 14 31 56 33 54 87 81 81 81 102 89 85 101 110 132 144 139 124

GFSNIL_con_3kmhel_036.txt.gz
Helicity
71 134 166 193 259 282 303 322 346 412 412 411 453 475 464 417 426 398 384 407 446 253
81 101 121 167 213 216 282 319 343 398 463 495 473 471 460 494 509 453 459 471 550 450
81 95 106 140 182 224 248 311 327 373 424 438 449 448 461 506 530 514 503 506 478 304
121 89 103 111 162 208 246 269 263 297 358 401 406 427 480 521 548 558 534 461 417 510
105 61 93 108 143 167 202 193 223 251 306 325 357 379 450 541 580 565 464 553 378 505
91 69 63 105 144 158 174 182 236 267 323 370 432 515 566 597 647 604 509 499 419 450
50 72 105 164 189 201 209 250 289 336 373 409 456 558 636 647 586 424 478 479 480 330
66 110 184 223 232 257 279 310 325 372 411 429 471 510 507 451 452 449 405 391 302 227
195 220 249 265 252 254 256 259 269 270 331 399 424 401 455 448 390 372 313 199 173 79
145 170 199 225 236 240 248 261 303 356 370 364 304 252 260 258 250 231 202 116 67 83
115 143 160 163 159 172 205 206 247 272 305 301 221 200 202 184 173 62 58 86 105 143
128 107 134 151 199 202 231 203 197 160 172 201 164 137 88 33 38 92 108 123 122 116
85 125 105 163 116 164 154 143 104 85 81 81 23 14 57 81 93 107 105 112 109 116
21 22 28 42 38 29 44 42 28 20 35 43 28 43 64 81 93 99 116 132 137 122

GFSNIL_con_3kmhel_039.txt.gz
Helicity
131 125 128 135 178 217 214 188 152 198 258 309 347 374 359 369 384 366 364 367 323 324
165 140 129 102 107 112 112 161 159 155 193 221 273 303 335 373 374 388 406 401 400 428
221 176 135 117 95 89 99 129 132 130 159 222 270 275 278 331 334 393 459 478 469 528
267 232 189 149 130 95 91 114 128 117 132 173 221 299 316 326 377 457 504 532 559 570
246 215 185 158 122 74 92 110 116 122 126 130 163 266 353 355 382 465 537 487 625 623
148 188 177 121 85 90 97 136 140 138 147 169 227 291 372 439 509 569 582 545 600 484
92 51 40 93 119 116 136 188 203 227 241 264 298 340 392 463 531 597 559 580 526 506
72 53 138 72 117 177 247 244 247 272 280 278 299 323 414 483 468 465 517 383 334 377
100 76 58 59 129 187 229 218 230 257 274 305 354 304 271 293 270 269 257 271 271 237
51 78 83 83 107 145 178 193 207 219 203 251 201 182 243 276 281 263 224 219 194 149
46 94 113 115 134 164 177 191 205 219 235 210 164 203 232 227 187 160 121 85 86 96
33 40 41 67 71 115 148 228 221 193 166 182 140 143 140 102 62 70 81 94 96 95
23 20 18 56 31 84 106 172 126 121 82 42 43 46 46 34 41 54 69 90 110 121
3 5 -2 8 11 10 24 27 39 40 34 7 -3 -3 41 58 62 68 87 100 104 113

GFSNIL_con_3kmhel_042.txt.gz
Helicity
182 180 171 153 177 202 213 187 141 140 163 174 177 175 208 246 278 308 340 314 338 374
201 184 177 179 167 148 127 134 120 125 145 156 177 198 226 274 261 270 275 298 340 398
251 243 232 216 195 163 135 113 81 63 77 106 154 215 245 254 255 276 285 357 404 456
191 221 244 231 206 163 146 130 108 93 89 94 119 140 189 233 270 307 334 368 481 572
144 159 169 175 169 154 169 123 64 80 92 104 119 109 125 220 277 328 348 382 461 493
93 82 107 147 181 142 145 139 124 30 75 93 122 135 158 227 277 308 333 383 431 441
65 77 99 125 161 149 125 121 143 169 115 163 171 179 205 275 322 381 391 410 374 323
74 56 66 110 122 118 137 149 114 143 226 183 217 233 268 289 329 341 341 306 305 270
63 69 73 77 105 99 78 92 138 158 167 175 162 143 186 211 237 234 226 244 266 206
61 60 57 43 73 105 134 158 180 184 168 174 137 145 124 183 229 209 205 215 183 179
54 57 56 67 77 70 99 192 132 200 213 225 135 156 188 228 209 180 189 180 134 86
48 36 40 90 90 65 146 161 195 217 250 181 155 168 142 139 120 109 68 47 62 82
29 58 80 32 80 71 87 89 94 67 55 55 64 52 38 23 22 35 58 75 83 97
-34 -25 -20 -8 -3 9 17 18 24 16 -0 4 12 18 31 46 40 54 61 70 86 106

GFSNIL_con_3kmhel_045.txt.gz
Helicity
180 174 167 148 145 164 169 152 141 163 176 166 179 206 224 243 262 317 327 305 380 398
217 222 222 213 184 176 160 166 183 191 153 144 148 164 192 226 261 303 298 309 324 354
216 243 234 220 228 227 214 195 184 154 155 163 125 130 141 189 254 281 281 270 283 453
136 140 142 150 169 175 174 183 182 169 162 126 131 125 125 153 196 231 342 374 388 368
109 107 118 140 170 177 157 115 134 177 199 175 152 92 62 111 196 270 317 328 300 301
113 116 123 132 140 141 138 154 164 177 172 142 155 247 205 110 143 221 238 239 255 293
118 109 96 103 128 123 135 174 202 166 170 152 168 196 203 132 138 199 221 232 239 229
104 91 74 106 117 117 123 142 161 170 213 138 95 111 223 193 156 228 252 257 257 234
89 85 82 95 90 98 92 102 120 105 110 141 61 112 166 197 249 261 267 248 244 213
78 83 82 75 84 98 91 126 176 179 199 223 168 155 149 200 201 187 175 188 171 136
66 88 83 74 63 76 82 97 96 149 132 179 154 167 143 130 153 142 153 135 142 144
45 63 54 58 61 69 93 130 145 142 162 156 92 98 148 132 115 102 96 84 66 48
-4 3 17 31 64 67 73 60 31 21 16 34 32 41 38 19 -8 1 14 35 54 76
-8 -10 -14 -8 -10 2 4 5 4 2 14 22 27 20 28 43 53 55 64 81 95 115

GFSNIL_con_3kmhel_048.txt.gz
Helicity
166 169 167 175 184 182 174 184 167 161 186 195 171 161 156 192 221 242 295 330 401 398
226 245 228 200 201 218 235 245 272 251 197 167 161 141 144 163 181 224 242 287 292 354
185 190 184 187 196 215 200 189 195 213 252 278 188 160 133 144 155 162 227 286 305 332
165 168 178 187 156 125 124 136 158 186 204 230 228 182 172 164 162 155 200 254 278 313
153 159 168 167 150 146 126 105 118 146 169 198 220 177 165 159 129 100 151 208 265 275
133 142 136 114 108 121 133 139 136 149 185 203 215 218 180 163 168 142 131 257 188 161
114 124 126 105 92 106 120 124 118 117 151 175 191 220 178 186 182 196 218 231 203 121
108 110 101 91 84 71 91 92 109 109 125 152 112 156 198 216 142 193 250 243 168 155
73 71 86 78 77 89 119 127 106 122 120 139 110 120 113 131 140 196 175 230 195 230
59 62 68 75 89 84 98 114 113 130 127 137 106 93 146 124 171 127 204 143 144 122
63 70 67 81 81 85 72 76 76 94 88 104 75 78 124 98 113 135 115 113 110 95
16 22 25 39 38 37 31 24 14 16 38 46 47 72 65 48 38 42 40 36 36 48
-6 -6 -8 -13 -14 -24 -25 -18 -15 -11 -18 14 -1 38 45 42 40 52 50 48 49 65
-14 -11 -18 -20 -29 -14 -14 -20 -13 -5 -19 5 26 35 56 67 67 73 88 97 101 104

GFSNIL_con_3kmhel_051.txt.gz
Helicity
170 160 168 170 164 167 174 182 202 226 219 154 134 132 132 135 142 167 199 197 285 336
199 213 208 201 162 150 157 171 197 210 227 247 204 164 150 136 123 134 154 177 205 249
182 199 193 200 185 164 160 166 172 171 166 191 197 191 190 183 168 159 155 142 148 232
167 168 168 163 150 139 121 112 111 120 136 141 160 171 193 183 169 162 177 163 143 174
142 140 137 136 132 127 112 91 83 91 116 132 151 168 198 205 213 178 171 181 180 191
115 114 124 126 130 115 102 94 72 54 82 114 139 160 179 188 207 165 154 180 146 121
111 117 122 141 132 110 101 105 98 95 97 107 114 135 139 152 172 156 136 169 147 177
119 115 129 134 116 111 126 125 107 81 80 97 112 122 114 130 123 137 177 183 168 172
84 91 92 99 100 98 107 111 104 114 94 117 98 116 123 116 121 88 119 117 184 235
86 99 100 82 84 75 82 86 95 97 102 110 79 131 83 95 76 75 114 99 107 146
59 54 51 60 55 47 44 52 50 58 48 42 31 40 42 47 30 40 44 47 54 60
22 18 4 12 12 6 -7 1 0 -21 -25 -16 -15 21 29 27 25 45 47 49 53 68
-7 -1 -5 -15 -7 -13 -6 -8 -27 -36 -25 1 -12 21 30 34 36 56 63 62 70 88
4 9 -4 -4 -6 -6 -8 -13 -9 -13 -17 1 17 29 56 65 51 55 64 69 69 71

GFSNIL_con_3kmhel_054.txt.gz
Helicity
142 132 136 137 129 133 141 155 185 200 198 192 165 146 137 129 129 130 125 143 174 206
155 163 162 175 164 141 146 142 149 158 173 195 209 201 164 139 149 133 114 111 119 168
162 169 169 163 166 148 138 136 133 142 153 167 170 176 174 174 169 181 158 157 158 156
150 151 144 138 134 128 114 119 116 109 116 125 130 137 142 160 165 184 181 187 185 187
130 127 127 128 122 117 117 113 116 107 93 95 96 102 125 140 160 175 180 182 180 181
114 117 124 124 125 126 121 127 128 119 105 103 112 110 105 117 152 162 161 147 144 150
105 102 110 124 142 149 141 135 128 113 89 95 116 124 125 138 148 150 171 139 159 172
99 102 111 116 122 130 144 130 126 132 131 123 135 122 126 123 133 154 160 144 169 147
69 73 81 90 109 125 141 139 140 147 135 110 96 137 117 107 92 117 111 107 131 111
64 84 104 106 118 117 114 110 115 110 99 93 85 89 88 78 45 39 39 37 42 50
52 63 76 79 77 69 56 54 44 32 28 29 20 28 24 27 14 24 31 35 43 59
20 35 37 45 41 22 21 15 10 11 21 23 18 32 28 18 15 25 35 40 44 59
6 22 33 27 15 7 9 11 10 17 18 29 20 27 26 23 16 29 31 41 52 64
17 28 31 15 3 15 17 22 16 17 15 23 29 24 38 38 23 32 41 50 57 61

GFSNIL_con_3kmhel_057.txt.gz
Helicity
110 98 101 110 110 124 125 134 156 166 170 180 201 211 191 169 158 156 148 137 129 136
121 131 128 145 143 132 142 135 151 163 182 195 187 188 195 209 233 222 210 192 185 130
116 137 144 148 156 147 141 140 148 154 156 164 173 182 185 199 202 195 185 165 170 189
131 147 150 143 140 137 125 128 128 128 130 137 145 152 150 153 165 159 161 156 149 155
141 150 148 137 130 122 121 113 107 108 110 117 121 126 134 148 159 161 145 136 158 159
126 131 127 124 119 120 113 113 116 121 135 130 114 110 125 146 157 157 158 171 146 142
105 97 96 105 116 122 125 133 142 149 145 124 101 120 131 152 154 157 173 179 168 121
88 90 96 104 107 116 122 125 121 119 122 111 108 119 133 141 148 157 165 161 164 152
81 72 72 87 93 102 117 125 131 132 114 117 111 154 158 133 119 110 121 135 113 100
67 60 63 83 97 113 114 109 111 119 116 120 98 104 100 89 51 45 33 28 24 32
67 67 74 74 78 77 67 77 68 63 58 54 45 49 42 46 24 31 32 33 28 35
44 52 56 55 41 30 40 50 50 36 40 45 40 56 49 38 28 34 40 42 40 43
35 49 50 23 22 27 36 33 38 45 39 52 49 51 46 38 30 40 41 43 56 67
26 53 50 26 23 33 36 29 38 31 27 35 36 32 47 46 35 36 39 50 58 65

GFSNIL_con_3kmhel_060.txt.gz
Helicity
125 117 125 131 125 133 126 125 136 143 156 174 187 196 191 194 199 200 192 184 184 204
120 128 127 141 141 134 139 132 142 152 163 179 196 213 221 228 250 273 287 292 273 242
113 128 136 144 153 151 148 152 155 161 161 159 161 166 177 193 215 228 242 232 233 225
102 119 138 150 156 156 151 157 155 147 141 141 141 142 145 170 193 205 208 209 193 186
102 122 147 162 167 159 152 147 141 133 127 125 128 131 145 175 198 205 212 198 178 152
104 118 134 139 148 151 138 135 132 127 134 138 137 137 132 153 183 202 203 187 172 169
99 108 113 119 124 128 129 129 130 132 129 128 128 130 123 138 165 183 197 190 181 174
83 103 104 108 105 105 113 113 117 121 123 124 114 101 112 135 149 149 156 173 177 189
74 89 85 89 99 108 114 117 116 125 124 122 102 116 118 98 91 92 100 104 101 92
81 82 82 81 97 109 112 118 120 111 107 99 88 88 79 66 43 41 41 40 42 56
79 77 77 85 95 108 108 96 86 84 78 72 48 55 51 50 28 36 38 38 40 50
60 62 70 72 68 65 71 69 60 44 37 40 32 49 42 36 33 40 40 42 40 45
56 67 77 67 57 59 58 51 33 43 43 44 39 46 48 40 33 41 39 40 51 64
54 57 66 76 59 67 64 50 35 34 42 43 41 31 46 48 41 41 44 51 51 51

GFSNIL_con_3kmhel_063.txt.gz
Helicity
163 152 152 153 148 156 157 156 159 156 155 157 158 161 160 160 172 168 181 193 169 169
141 134 133 135 136 138 147 147 154 155 157 166 177 187 186 186 201 217 236 241 227 252
107 109 113 124 134 137 140 144 142 146 152 162 176 179 175 168 177 191 210 222 236 251
105 112 117 125 132 142 147 156 157 157 157 159 163 156 152 168 182 194 206 219 220 222
96 104 115 125 136 147 158 168 165 159 159 154 146 136 134 164 198 225 236 230 224 209
82 91 112 124 135 147 149 156 158 151 148 138 132 130 136 142 180 203 211 200 185 162
70 90 103 121 131 149 145 147 137 132 130 131 139 137 128 114 140 154 166 167 149 132
47 75 100 105 109 112 119 117 105 109 118 117 104 106 112 118 125 128 146 152 165 147
59 74 89 90 92 102 109 114 108 114 114 117 104 94 93 95 101 98 93 89 78 80
72 82 83 92 92 95 101 101 105 112 101 94 78 70 62 63 44 45 45 49 55 58
78 85 77 82 90 98 103 105 99 88 75 56 45 38 49 53 45 49 48 50 49 52
84 83 70 69 72 75 83 81 71 50 52 36 32 44 47 44 34 45 47 43 39 47
71 70 72 69 65 61 53 49 38 43 37 35 37 37 34 34 36 43 39 42 46 51
77 80 72 71 58 49 40 45 38 42 42 44 32 22 36 51 38 43 44 44 46 48

GFSNIL_con_3kmhel_066.txt.gz
Helicity
148 139 145 157 158 157 163 167 167 159 149 144 140 134 128 125 126 144 154 153 186 203
151 146 147 151 149 148 151 156 153 152 150 148 144 142 137 135 145 163 183 190 191 209
150 145 138 133 138 145 148 149 145 148 150 150 151 155 158 154 156 154 164 183 204 236
131 124 116 111 120 126 131 142 138 144 152 157 155 153 141 148 147 147 158 173 186 203
94 92 94 101 105 116 117 128 140 143 149 152 149 140 131 129 136 148 170 183 188 184
86 82 89 99 110 114 121 129 141 147 142 143 131 117 117 113 122 157 183 186 179 165
80 77 84 100 116 133 142 141 150 154 146 135 125 124 124 117 110 128 144 144 148 140
77 69 64 67 84 103 129 138 136 130 122 113 103 100 106 109 112 120 124 134 139 132
79 75 60 69 84 93 107 111 105 110 114 111 102 93 95 92 99 95 97 95 87 79
80 78 63 71 86 99 102 100 98 102 105 117 107 91 89 83 74 59 53 41 33 47
90 82 80 85 84 93 110 114 107 107 101 91 87 64 61 63 51 52 45 42 48 49
93 89 86 85 85 88 112 113 107 94 79 69 54 37 37 35 32 37 41 45 51 45
96 87 92 91 98 102 97 85 60 57 39 39 31 26 26 25 28 33 41 38 40 40
100 95 89 105 101 110 101 65 44 34 29 30 29 29 22 26 42 44 38 31 38 47

GFSNIL_con_3kmhel_069.txt.gz
Helicity
145 141 134 128 131 124 143 163 163 142 145 150 145 136 126 124 126 122 126 129 137 148
176 166 160 164 164 160 159 174 159 148 145 142 139 144 142 135 141 140 139 148 161 174
191 163 148 148 156 164 160 140 143 136 136 140 141 144 148 149 153 134 134 145 170 178
106 95 98 118 128 134 139 128 122 130 135 139 148 151 154 154 150 142 142 146 159 173
112 106 102 96 104 108 114 122 125 119 119 133 141 154 163 155 145 148 141 146 153 175
105 90 97 107 109 109 113 121 127 133 135 137 141 141 146 139 130 137 157 173 191 194
90 86 87 98 101 119 131 137 139 153 159 153 152 152 140 133 127 129 147 174 183 177
77 79 87 86 81 87 117 149 157 150 146 145 124 122 119 117 118 127 139 157 158 149
77 73 82 83 72 69 90 122 138 141 144 140 130 104 120 127 125 134 134 132 126 113
78 77 97 87 80 68 72 105 129 145 134 155 140 118 117 117 121 116 111 97 67 55
84 89 114 98 91 94 91 100 124 139 126 134 117 107 95 97 89 79 63 48 43 38
101 103 118 105 103 119 118 133 136 148 153 129 97 77 62 56 40 52 46 41 50 49
134 121 121 104 128 134 134 129 122 130 113 81 71 32 36 42 43 34 49 44 47 50
142 135 134 136 145 149 147 138 121 98 71 49 27 25 28 34 48 51 50 42 44 51

GFSNIL_con_3kmhel_072.txt.gz
Helicity
320 271 318 274 265 218 219 241 213 176 171 171 170 160 152 141 131 129 140 128 149 143
247 239 232 210 206 198 180 184 183 168 152 150 148 150 145 138 145 168 161 160 156 152
294 202 178 189 147 164 148 140 149 149 150 146 138 136 137 138 161 168 154 151 143 153
212 279 163 150 175 158 160 149 146 144 148 146 151 155 147 146 147 156 171 161 148 156
223 208 195 178 162 157 135 133 125 140 131 146 159 156 159 166 159 162 176 166 146 153
158 144 136 147 145 131 129 133 134 120 131 171 171 171 171 187 205 213 202 190 174 166
136 129 134 143 135 130 129 123 148 174 191 168 171 186 194 203 209 206 189 178 179 181
120 126 139 133 115 101 103 117 137 154 148 149 146 148 167 177 177 171 152 153 164 165
112 96 91 95 88 86 85 81 81 116 135 131 137 136 139 149 160 143 137 147 145 138
114 98 116 116 92 70 55 77 70 88 113 126 137 141 147 140 144 133 130 117 104 98
124 103 131 129 94 82 87 80 91 97 121 138 147 155 136 137 140 129 116 87 56 45
137 129 162 162 114 106 104 98 108 122 138 129 144 135 119 113 122 89 64 46 50 54
149 141 158 156 152 151 129 122 132 128 129 98 117 96 89 77 63 45 38 34 45 61
154 162 167 178 194 163 149 143 128 107 103 103 92 68 43 29 47 51 46 44 48 46

GFSNIL_con_3kmhel_075.txt.gz
Helicity
203 219 208 204 227 272 272 239 194 168 142 144 153 156 160 154 150 150 148 147 158 164
202 204 229 221 200 261 214 181 164 160 157 144 146 155 156 150 142 151 153 144 153 161
408 426 289 373 327 243 274 191 198 172 180 171 167 169 158 148 147 153 158 161 169 150
229 242 337 295 282 236 221 205 149 178 170 161 150 155 150 144 142 150 156 158 158 135
262 256 212 199 184 167 160 140 146 160 146 138 142 147 150 149 151 147 154 162 148 144
185 193 189 177 160 150 148 155 129 114 127 154 171 163 172 170 177 182 187 186 177 156
156 144 143 144 143 135 124 120 122 123 125 138 141 147 163 176 183 181 183 175 167 160
131 139 139 131 118 111 107 105 94 95 96 103 111 124 147 157 170 171 169 167 154 152
136 133 123 118 107 103 106 110 106 96 81 84 113 119 118 144 169 160 160 158 148 149
134 125 117 119 107 92 99 109 101 92 84 71 93 102 139 169 178 149 129 132 129 126
139 127 135 133 111 103 108 100 87 83 72 91 100 118 158 164 162 144 126 107 90 92
164 146 151 140 124 119 120 109 106 106 90 103 107 93 136 147 130 109 103 81 62 54
169 165 164 149 143 136 137 127 131 122 106 98 101 80 110 119 101 92 73 51 44 50
160 164 167 154 165 154 146 146 129 117 112 107 106 100 82 82 69 43 43 42 42 45

GFSNIL_con_3kmhel_078.txt.gz
Helicity
138 162 179 172 192 176 169 149 138 170 177 183 169 179 190 186 172 160 157 142 156 165
194 190 184 196 206 214 216 234 364 241 229 197 148 158 148 165 159 160 149 143 152 165
219 250 285 282 345 340 277 249 247 173 200 223 159 163 190 173 159 152 147 146 146 152
246 263 286 288 292 269 271 204 176 175 185 183 176 173 176 162 145 148 147 144 143 140
231 235 235 225 232 223 234 187 169 170 162 152 145 150 150 153 164 143 138 143 150 140
195 202 210 212 211 203 191 174 153 147 133 132 132 142 153 147 147 158 166 172 164 147
166 165 163 160 159 154 143 132 120 112 108 110 114 121 129 144 147 165 177 181 177 163
129 138 147 150 139 127 120 113 112 110 102 90 81 78 99 124 135 146 158 163 159 168
125 124 123 124 116 114 111 105 104 97 91 85 76 62 65 84 129 147 155 161 173 177
133 128 123 119 118 108 96 99 100 101 101 89 85 68 68 84 138 150 162 165 155 145
137 125 126 127 117 108 102 82 87 92 90 93 85 69 73 109 152 160 160 146 123 104
146 144 137 132 120 116 110 97 94 98 90 84 85 68 69 119 146 143 130 110 93 74
134 142 143 132 138 138 129 102 110 95 86 69 87 60 64 108 149 136 104 77 66 32
112 128 134 150 174 146 137 136 135 116 110 97 97 93 69 99 137 116 93 55 36 32

GFSNIL_con_3kmhel_081.txt.gz
Helicity
106 115 141 186 219 227 201 181 172 156 156 188 201 235 162 147 138 139 139 135 142 144
118 123 139 161 171 166 201 230 241 192 186 188 224 148 129 125 108 119 134 134 137 147
125 136 164 203 218 205 200 209 185 276 218 153 129 132 179 171 138 138 135 139 137 147
134 161 198 213 227 248 251 211 253 255 207 187 128 133 145 147 136 132 133 136 136 137
156 180 200 213 215 213 234 234 201 155 184 149 133 144 145 140 132 121 112 121 144 145
146 158 170 180 186 191 194 193 176 171 149 140 142 146 144 131 117 112 130 150 159 154
140 138 148 168 176 173 167 159 149 143 138 133 129 112 100 100 107 120 134 149 157 150
132 146 157 163 166 164 152 137 127 128 120 106 95 85 74 57 58 83 117 125 131 140
135 140 139 145 140 133 125 117 108 97 91 85 79 63 56 51 53 66 112 131 149 176
132 129 127 132 131 113 103 106 98 91 87 76 75 63 63 61 79 83 119 131 148 157
147 138 143 139 114 111 113 93 86 67 74 86 85 77 74 84 91 95 119 137 133 133
165 151 150 142 123 120 117 109 93 76 78 88 84 66 65 78 93 94 108 116 126 121
161 155 142 136 134 147 142 118 115 90 84 81 86 53 54 90 115 103 120 118 116 87
157 129 125 138 162 151 145 141 130 111 99 102 87 84 61 71 128 109 114 110 109 82

GFSNIL_con_3kmhel_084.txt.gz
Helicity
76 80 82 104 132 150 180 186 162 196 200 197 225 185 165 139 124 107 107 121 116 113
101 82 73 75 101 131 165 208 222 210 194 186 163 174 188 123 130 113 111 132 132 126
82 86 91 106 114 130 166 190 211 229 237 216 175 201 144 143 118 112 124 144 141 139
92 99 107 114 118 133 170 192 211 201 205 167 185 179 152 143 126 122 131 142 144 124
120 124 128 136 152 168 189 198 204 196 197 189 215 174 170 153 125 131 142 134 133 127
106 121 137 159 179 190 199 197 195 196 196 201 189 163 160 120 112 111 105 107 124 135
103 106 124 148 163 183 191 193 192 190 187 180 167 143 123 113 99 79 73 93 110 122
109 138 158 174 183 189 195 190 183 175 164 148 133 115 103 93 81 63 42 51 103 123
121 130 137 162 177 181 177 162 151 141 125 115 104 95 85 75 66 56 41 43 94 129
133 143 150 160 162 155 142 134 119 112 101 93 88 84 83 76 79 67 53 61 100 127
144 156 162 168 153 147 144 119 116 101 95 88 81 85 78 84 104 93 73 73 103 117
151 167 175 165 162 158 159 147 125 110 82 71 71 72 74 94 109 96 73 89 114 118
159 175 172 176 165 175 168 142 132 115 85 61 84 81 75 77 128 102 102 109 114 98
129 161 160 166 174 162 158 156 140 117 100 94 98 105 76 54 131 120 138 135 121 110

GFSNIL_con_3kmhel_087.txt.gz
Helicity
104 95 98 98 104 110 122 126 141 176 190 198 182 184 189 162 140 132 127 118 103 96
117 108 103 88 94 104 122 149 177 199 230 217 220 207 180 177 172 150 129 132 138 121
127 122 107 93 89 88 112 151 195 223 243 237 224 212 218 188 169 191 158 136 132 121
113 118 117 114 104 98 118 136 166 192 214 227 240 224 226 206 188 206 146 143 125 117
94 108 115 121 123 122 146 165 186 209 226 227 224 207 204 208 197 189 164 150 132 133
71 83 105 121 134 153 174 194 212 220 224 220 206 196 197 202 181 178 154 128 127 142
100 120 133 137 142 159 181 203 217 220 214 207 198 197 186 181 172 143 112 84 76 92
101 128 149 161 169 179 183 196 210 216 205 182 160 144 129 121 114 103 86 67 46 57
89 111 126 143 155 169 183 189 188 183 179 166 158 123 110 110 108 100 88 73 40 55
85 98 118 138 149 151 152 166 165 159 145 135 127 110 108 109 106 96 82 63 41 68
87 101 121 131 135 153 163 151 156 135 127 128 115 106 102 89 103 101 84 77 75 86
79 107 128 126 140 159 162 162 155 143 129 118 101 67 81 92 114 112 99 97 102 111
57 88 120 128 145 173 176 159 154 152 129 101 94 54 68 104 129 124 124 114 107 109
58 72 112 151 167 167 162 171 158 142 125 103 85 83 67 75 135 133 132 107 85 100

GFSNIL_con_3kmhel_090.txt.gz
Helicity
78 74 72 71 80 78 85 98 108 140 143 119 125 147 137 99 121 113 106 125 134 125
117 109 106 105 104 109 120 134 118 119 140 149 162 166 165 149 151 132 128 127 140 143
121 116 109 111 115 126 132 135 158 170 181 196 210 228 222 214 197 199 200 186 175 159
113 116 116 116 112 113 127 137 152 180 216 245 259 255 248 237 222 211 176 188 168 162
95 96 101 117 125 121 126 139 158 188 214 236 248 251 242 229 209 189 179 182 173 164
69 72 82 96 108 124 139 156 168 181 198 212 223 225 218 207 208 195 176 168 151 156
65 77 91 101 115 128 139 147 157 165 176 183 192 196 193 186 180 175 173 171 155 132
93 85 91 99 111 123 132 153 169 181 190 189 185 187 184 185 180 173 166 151 131 109
96 106 108 111 113 121 130 140 152 159 163 171 177 164 153 146 144 131 123 113 103 83
69 77 97 113 115 112 111 127 134 143 148 144 149 133 125 125 130 127 122 116 112 95
45 54 82 108 110 117 125 121 127 126 126 128 127 98 95 97 119 134 133 116 89 73
55 47 70 100 108 115 126 131 132 138 131 126 116 93 89 87 104 112 103 90 76 76
76 60 56 77 116 131 124 126 148 149 135 117 119 86 62 76 104 97 106 99 99 94
89 88 75 73 107 135 173 175 167 149 141 135 124 112 55 47 112 112 115 105 111 123

GFSNIL_con_3kmhel_093.txt.gz
Helicity
-2 13 41 36 36 21 60 101 98 108 111 132 164 163 139 136 113 129 111 72 100 101
54 53 53 64 76 77 96 120 113 114 143 170 192 165 183 163 124 104 124 107 120 117
118 113 105 94 92 100 98 114 123 134 144 211 221 176 175 197 203 178 189 192 171 148
110 115 110 112 120 117 129 126 130 152 167 188 190 210 226 213 222 221 206 190 175 148
95 100 105 114 130 149 145 145 137 146 163 173 195 229 231 248 240 230 212 203 192 167
75 75 81 85 93 99 110 117 130 140 158 171 190 204 215 217 219 210 203 191 180 177
74 87 95 106 111 115 116 125 137 148 163 177 193 201 211 208 211 217 212 203 181 175
73 77 91 103 107 118 136 148 150 166 186 190 197 216 212 212 207 192 190 182 169 169
68 53 49 65 87 109 117 131 149 159 168 186 207 209 214 203 193 187 174 161 157 149
92 74 58 55 70 91 108 131 138 146 155 153 167 163 161 175 184 179 172 159 148 133
73 80 75 69 74 87 108 121 137 143 150 156 171 144 149 159 215 215 203 182 138 117
73 69 68 60 65 86 111 126 123 132 151 154 170 137 138 165 176 158 136 113 107 105
80 79 79 84 87 85 108 125 142 156 149 127 134 106 93 120 160 140 137 119 112 101
88 98 108 106 99 103 129 143 148 150 156 158 135 120 92 95 136 137 139 134 137 126

GFSNIL_con_3kmhel_096.txt.gz
Helicity
-24 12 -11 39 56 -2 10 6 51 135 142 123 121 143 218 180 176 154 136 148 153 119
-26 11 40 46 66 69 80 82 130 152 153 142 168 185 187 181 163 194 195 168 163 163
51 58 89 89 69 60 88 90 104 112 127 139 160 203 213 225 209 209 184 175 174 150
57 67 77 91 111 116 114 123 109 118 134 147 177 203 214 191 186 205 226 202 179 169
90 96 100 112 124 128 114 111 119 139 160 176 181 200 220 230 228 233 223 192 179 177
79 85 91 92 92 94 106 106 110 117 124 139 160 178 187 210 206 210 207 201 194 188
87 82 83 79 79 88 100 105 120 132 140 141 135 145 163 177 189 199 204 201 189 186
93 95 100 106 106 103 104 106 111 122 134 152 174 187 196 197 188 205 223 217 203 205
79 90 86 87 87 95 114 123 137 139 146 159 173 157 166 203 224 225 226 215 205 209
67 68 63 60 61 71 74 86 100 121 143 148 161 148 150 167 209 215 210 205 208 212
72 81 76 74 72 62 79 86 99 108 115 137 150 126 130 148 212 222 216 213 193 193
63 56 58 76 88 93 88 98 126 134 121 134 139 122 132 166 214 203 189 188 181 174
72 74 70 56 63 84 110 111 124 129 135 127 149 126 118 142 201 202 183 159 140 103
105 95 75 52 57 75 77 91 108 129 145 149 140 143 103 112 182 188 202 180 157 158

GFSNIL_con_3kmhel_099.txt.gz
Helicity
210 86 159 154 85 64 82 100 110 111 92 88 80 9 88 135 138 187 67 77 67 113
-0 -6 37 13 13 7 29 41 77 37 -29 30 36 35 54 148 109 144 133 143 136 160
4 18 19 -10 6 16 -9 -14 22 30 35 59 84 89 118 142 155 168 167 163 166 171
68 62 21 2 57 72 68 67 64 72 75 80 100 119 146 158 193 176 183 196 173 175
45 56 63 74 77 83 80 79 80 98 109 111 117 122 136 153 155 157 156 174 178 173
92 88 85 79 75 72 68 74 81 80 89 96 102 119 137 156 169 184 171 171 168 172
73 68 61 63 72 80 89 100 103 97 91 90 96 106 116 129 143 161 180 193 201 205
86 96 102 105 103 104 108 107 98 91 104 116 119 122 122 134 146 165 180 183 192 202
91 92 98 98 95 90 90 95 105 113 117 114 127 119 119 152 178 182 189 201 220 223
64 70 82 89 98 106 101 87 84 87 96 105 113 110 105 114 161 171 184 189 195 201
92 82 68 80 89 94 93 103 109 113 111 113 113 103 108 115 155 161 157 168 182 194
82 82 82 76 73 95 106 119 114 117 123 139 136 118 108 135 177 180 162 168 181 187
57 79 85 82 63 29 71 104 116 111 121 128 143 127 118 132 188 171 168 172 175 142
80 87 83 81 76 79 70 86 102 115 113 121 130 137 113 126 188 163 154 151 159 163

GFSNIL_con_3kmhel_102.txt.gz
Helicity
202 173 161 129 116 78 91 112 121 103 86 77 115 85 115 94 189 129 151 142 155 180
135 155 107 117 88 82 73 76 43 90 96 64 128 130 37 113 79 78 156 135 148 158
120 117 99 102 58 -26 -35 -24 10 18 20 18 4 -35 13 29 -2 67 112 124 107 115
15 40 26 14 8 14 34 43 32 33 -6 9 14 58 56 59 83 114 113 165 161 137
76 72 73 75 54 34 37 66 74 69 68 71 77 76 78 93 134 131 148 175 173 173
93 89 79 85 81 81 82 89 93 98 99 99 95 94 93 103 115 129 140 163 161 170
75 69 64 58 63 62 61 67 79 90 100 101 100 96 99 104 112 120 130 140 150 169
67 67 71 83 91 97 101 102 106 112 115 110 109 119 125 127 128 125 139 157 164 161
65 62 64 67 80 88 98 105 103 114 113 123 129 136 143 142 153 153 149 147 157 183
45 56 68 75 70 76 85 91 108 108 107 118 124 122 132 135 154 164 163 164 186 194
33 33 34 45 50 59 52 65 89 113 129 129 132 130 136 139 160 172 164 163 171 192
67 73 82 87 88 85 77 88 98 115 131 134 135 135 135 150 176 185 178 179 181 182
40 44 47 45 57 62 76 84 104 125 134 134 143 165 186 199 174 187 187 184 186 133
68 80 84 100 101 92 90 91 87 91 97 96 92 101 142 179 195 188 169 172 166 164

GFSNIL_con_3kmhel_105.txt.gz
Helicity
243 220 158 270 342 253 245 183 171 207 165 134 193 248 166 115 88 164 213 171 219 151
172 175 203 254 233 151 175 171 159 97 88 91 120 94 120 124 133 122 131 141 140 180
139 301 193 159 178 99 95 45 54 64 81 57 70 63 79 69 45 104 91 79 143 87
80 66 84 110 93 111 61 -13 30 34 -11 11 19 33 65 77 24 -4 5 73 66 98
58 62 59 50 30 28 23 47 49 53 54 53 67 63 65 78 92 79 78 101 114 104
80 72 67 64 67 74 76 75 78 77 82 85 92 89 91 93 91 100 115 115 125 136
82 70 67 69 74 75 75 78 80 76 82 93 97 103 112 114 114 113 122 136 149 155
66 62 64 72 72 71 74 75 74 81 93 95 98 103 123 130 133 133 140 143 150 152
20 23 32 37 42 41 47 60 65 78 86 111 117 144 154 147 144 148 146 149 156 156
5 14 24 18 24 30 43 49 61 66 74 90 96 127 145 140 124 130 141 155 163 171
4 1 6 8 16 25 23 42 59 73 82 91 106 141 158 168 144 159 157 159 164 170
13 19 36 48 52 42 44 51 62 84 107 116 133 144 153 183 165 157 172 168 174 180
45 42 38 37 41 42 53 52 60 66 79 100 111 139 176 161 146 158 137 132 157 127
7 0 0 -1 7 6 8 11 7 6 -10 -30 -2 57 120 162 151 137 131 133 116 128

GFSNIL_con_3kmhel_108.txt.gz
Helicity
114 132 159 213 218 184 159 232 171 194 169 166 140 194 189 188 77 87 129 170 101 120
131 122 170 218 167 207 168 135 147 175 193 164 123 117 153 127 142 152 195 162 115 160
284 354 420 374 314 209 200 187 154 61 119 112 165 122 70 50 95 95 94 89 86 89
255 271 197 145 150 186 172 139 147 92 60 21 4 48 -11 25 39 53 61 100 110 57
163 183 178 153 94 116 123 121 18 44 51 130 52 48 48 68 86 77 88 94 105 98
127 111 91 79 68 88 74 99 99 83 58 65 66 73 66 85 90 86 83 89 90 88
65 67 76 74 71 70 64 71 77 74 75 77 76 78 94 96 106 111 117 120 115 118
28 27 26 34 39 43 55 61 62 69 76 78 73 75 94 89 81 87 90 106 113 117
18 13 17 17 20 27 31 25 14 21 31 46 47 101 133 122 97 108 110 119 135 144
-23 -24 -20 -17 -5 1 7 2 17 27 37 60 60 104 124 129 89 95 104 103 116 133
-64 -64 -56 -53 -43 -30 -28 -17 -16 -0 14 36 64 99 106 106 68 74 91 111 117 128
-19 -10 -2 5 8 12 17 21 34 44 56 61 90 133 152 146 103 100 114 114 131 142
-9 -11 -10 -16 -23 -36 -43 -49 -56 -53 -38 -9 -3 47 94 109 70 86 103 142 162 147
-7 -24 -47 -44 -34 -40 -30 -22 -8 -5 -25 -53 -93 -102 -97 -53 -22 2 10 15 53 134

GFSNIL_con_3kmhel_111.txt.gz
Helicity
106 106 110 95 118 143 159 173 159 188 192 155 237 256 249 226 254 242 128 215 139 143
65 45 39 36 76 154 195 186 126 136 159 156 257 263 193 213 221 174 198 179 62 41
130 149 178 233 233 286 251 170 142 120 104 116 80 163 154 120 167 157 137 120 94 127
239 278 315 423 460 353 277 326 354 286 214 202 152 114 70 86 65 74 70 73 90 103
416 211 193 213 191 191 195 199 207 145 136 115 85 160 137 90 120 100 88 57 16 148
141 224 196 141 75 75 120 104 132 125 69 83 77 63 61 57 58 76 54 20 28 69
149 96 82 78 85 93 96 87 89 92 93 104 100 93 96 92 90 80 83 92 102 98
54 55 49 51 62 65 70 68 73 86 79 84 98 96 114 107 115 114 114 113 111 110
13 27 34 38 40 45 69 77 80 90 92 95 97 142 144 128 104 111 105 106 123 132
5 5 6 10 19 32 36 35 48 59 66 77 69 119 114 113 79 89 105 109 126 145
-14 -9 -8 -7 -6 -4 -10 -8 -12 2 9 28 22 69 85 92 67 74 83 104 119 123
-28 -23 -12 5 10 5 16 20 36 36 49 56 73 114 125 109 71 77 93 88 104 129
1 1 -4 -14 -25 -46 -64 -78 -85 -84 -84 -95 -98 -113 -109 -93 -83 -66 -41 15 46 90
4 -6 -19 -33 -40 -35 -30 -23 -15 -14 -14 -30 -47 -31 -22 -18 -18 -30 -38 -45 -59 -50

GFSNIL_con_3kmhel_114.txt.gz
Helicity
97 122 139 150 147 144 151 150 121 102 104 119 124 138 165 216 236 248 274 237 235 249
78 97 112 122 136 137 114 124 105 101 118 136 173 190 164 199 207 218 228 253 254 274
164 161 119 140 164 182 190 221 158 126 158 168 161 162 192 212 178 210 201 231 221 175
172 193 166 170 226 246 277 343 334 418 467 345 266 255 186 171 154 213 154 130 172 138
267 284 426 302 266 448 360 397 232 388 418 296 228 162 167 194 175 131 178 211 130 198
226 243 277 389 232 116 137 131 154 181 181 183 209 139 130 112 135 93 63 86 88 133
251 132 95 61 62 99 121 140 148 148 153 142 116 125 120 111 103 108 112 94 106 97
-11 -12 12 31 54 69 84 71 77 86 94 95 103 131 135 128 120 119 115 123 123 102
29 44 60 59 71 69 68 63 72 85 80 85 73 127 135 127 107 114 114 127 142 144
12 18 30 37 37 43 54 64 65 74 85 91 84 121 124 129 97 105 110 118 119 119
17 24 19 31 40 48 54 67 65 83 97 92 91 142 155 158 107 102 121 133 143 147
3 5 13 25 30 35 36 37 43 50 69 82 97 128 136 129 104 115 135 141 155 181
19 27 40 47 55 61 66 57 46 25 3 -3 -11 -8 -32 -53 -60 -53 -46 -59 -39 -15
40 38 40 30 19 10 1 -8 -8 -8 -5 -6 9 16 5 10 18 39 32 26 24 -3

GFSNIL_con_3kmhel_117.txt.gz
Helicity
39 83 102 124 138 149 138 140 145 119 140 139 119 126 131 145 167 161 183 185 208 265
50 48 86 104 128 148 121 138 139 139 121 110 116 134 141 169 170 186 203 209 211 228
225 255 244 193 192 215 200 176 206 241 252 238 256 241 230 252 246 183 170 164 150 202
193 207 186 173 180 181 218 230 227 250 293 341 356 399 328 303 273 279 225 225 214 209
132 144 198 236 244 209 268 335 303 283 330 375 388 442 325 282 224 214 187 217 168 224
290 261 248 269 296 245 268 371 404 345 248 269 314 397 336 192 229 185 160 214 220 119
272 240 210 215 288 256 209 239 323 273 274 156 120 164 178 117 163 100 75 75 87 77
69 124 189 141 91 52 50 43 54 65 62 72 108 96 152 178 90 108 108 104 111 115
-3 -0 6 13 12 21 33 54 75 81 77 89 92 141 160 148 113 136 133 126 132 132
25 30 33 33 50 63 67 68 73 77 81 82 77 133 147 159 101 101 115 126 131 146
4 12 19 35 40 43 49 52 54 76 94 97 92 135 145 157 111 108 111 121 136 149
27 29 33 37 42 49 56 70 86 97 102 107 96 139 144 129 88 75 82 83 84 107
25 28 37 38 42 49 54 56 51 61 60 66 66 89 94 100 83 114 98 50 31 27
35 39 45 41 36 40 44 47 54 62 52 43 58 49 33 11 3 27 23 23 28 25